Regional Weather Roundup
Issued by NWS

Home | Current Version | Previous Version | Text Only | Print | Product List | Glossary On
Versions: 1 2 3 4 5 6 7 8 9 10 11 12 13 14 15 16 17 18 19 20 21 22 23 24 25 26 27 28 29 30 31 32 33 34 35 36 37 38 39 40 41 42 43 44 45 46 47 48 49 50
000
ASCA44 KEWX 040020
RWRMX

LATIN AMERICA AND CARIBBEAN REGIONAL WEATHER ROUNDUP
NATIONAL WEATHER SERVICE AUSTIN/SAN ANTONIO TX
600 PM CST TUE MAR 03 2015

NOTE: "FAIR" INDICATED FEW OR NO CLOUDS BELOW 12,000 FEET WITH NO
SIGNIFICANT WEATHER AND/OR OBSTRUCTIONS TO VISIBILITY.

BAJA CALIFORNIA

CITY           SKY/WX    TMP DP  RH WIND       PRES   REMARKS
LORETO         PTSUNNY   70  52  52 W23       29.82F
LA PAZ         CLOUDY    73  61  64 S7        29.88
MEXICALI       MOSUNNY   64  41  42 N3        29.86
S.J. DEL CABO  CLOUDY    81  54  39 S10       29.84S
TIJUANA        MOSUNNY   59  45  58 NW9       29.90F

NORTHWESTERN MEXICO

CITY           SKY/WX    TMP DP  RH WIND       PRES   REMARKS
CULIACAN       CLOUDY    82  66  57 W12       29.85
DURANGO        SUNNY     73  27  17 SW20      30.04R
GUAYMAS        MOSUNNY   70  54  56 S12       29.79
HERMOSILLO     SUNNY     73  41  31 S9        29.83
CD. JUAREZ     PTSUNNY   61  45  55 NW6       29.79
LOS MOCHIS     PTSUNNY   72  59  64 N7        29.87R
OBREGON        LGT RAIN  61  59  94 NE2       29.84

NORTHEASTERN MEXICO

CITY           SKY/WX    TMP DP  RH WIND       PRES   REMARKS
CHIHUAHUA      CLOUDY    70  36  28 SW20      29.87
MATAMOROS        N/A    N/A N/A N/A MISG        N/A
MONCLOVA         N/A    N/A N/A N/A MISG        N/A
MONTERREY      CLEAR     70  61  73 E8        29.76F
NUEVO LAREDO   CLEAR     72  61  68 SE9       29.76
PIEDRAS NEGRAS   N/A    N/A N/A N/A MISG        N/A
REYNOSA        PTCLDY    75  61  60 S12G23    29.77
SALTILLO       CLEAR     84  46  26 SW12      29.91F
TORREON        MOSUNNY   90  41  18 W12       29.80F
CD. VICTORIA   CLEAR     77  61  57 S14       29.78

WESTERN MEXICO

CITY           SKY/WX    TMP DP  RH WIND       PRES   REMARKS
AGUASCALIENTES SUNNY     75  18  11 SW14      30.08
COLIMA         SUNNY     81  57  44 SW12      29.90S
DEL BAJIO      MOSUNNY   79  28  15 S12       30.14R
GUADALAJARA    SUNNY     82  27  13 W22       30.01
MANZANILLO     SUNNY     81  70  69 SW6       29.75S
MAZATLAN       PTSUNNY   79  63  57 SW8       29.81S
P. VALLARTA    SUNNY     82  64  54 SW13      29.81R
URUAPAN        SUNNY     77  50  38 S9        30.06S
ZACATECAS      SUNNY     73  23  15 SW13G29   30.11S

CENTRAL MEXICO

CITY           SKY/WX    TMP DP  RH WIND       PRES   REMARKS
CUERNAVACA     CLEAR     84  36  17 CALM      29.95S
MEXICO CITY    CLEAR     75  37  25 SE17      30.14R
MORELIA        MOSUNNY   75  43  31 S12       30.08
POZA RICA      CLEAR     77  66  69 E7        29.84F
PUEBLA         CLEAR     70  37  30 S13       30.17R
QUERETARO      MOSUNNY   77  36  22 NW13      30.12S
S. LUIS POTOSI SUNNY     81  23  12 SW17      30.03F
TAMPICO        CLEAR     70  64  83 E9        29.82F
TOLUCA         PTCLDY    70  36  28 S12       30.24R

SOUTHERN MEXICO

CITY           SKY/WX    TMP DP  RH WIND       PRES   REMARKS
ACAPULCO       SUNNY     82  73  74 W13       29.76S
B. DE HUATULCO CLEAR     82  73  74 S9        29.84
OAXACA         CLEAR     82  30  15 S7        30.02S
P. ESCONDIDO   CLEAR     81  75  83 S9        29.96S
VERACRUZ       CLEAR     77  68  73 SE9       29.83F
ZIHUATANEJO    SUNNY     82  72  69 SW12      29.79S

YUCATAN PENINSULA

CITY           SKY/WX    TMP DP  RH WIND       PRES   REMARKS
CAMPECHE       PTCLDY    81  75  83 W12       29.86R
CANCUN         MOCLDY    79  72  78 E9        29.99S
CHETUMAL       PTCLDY    81  68  65 SE7       29.93R
CD. DEL CARMEN CLEAR     82  72  69 NE6       29.85
COZUMEL        PTCLDY    75  72  88 E5        29.98S
MERIDA         MOCLDY    86  70  58 E8        29.89R HX  90
MINATITLAN     CLEAR     77  68  73 N8        29.81
TAPACHULA      PTCLDY    84  73  70 CALM      29.81S HX  91
TUX. GUTIERREZ PTCLDY    82  64  54 NW23      29.82R
VILLAHERMOSA   PTCLDY    86  64  48 E10       29.85S

CENTRAL AMERICA

CITY           SKY/WX    TMP DP  RH WIND       PRES   REMARKS
BELIZE CITY    MOCLDY    81  73  78 E7        29.94S
MANAGUA        PTCLDY    86  66  51 NE9       29.77S

CARIBBEAN

CITY           SKY/WX    TMP DP  RH WIND       PRES   REMARKS
ARUBA          PTCLDY    79  73  83 NE17      29.89R
KINGSTON       PTCLDY    82  72  69 SE16      29.94R
NASSAU         PTCLDY    75  70  83 E8        30.14S
SAN JUAN       MOCLDY    77  66  69 E17       30.07R
SANTO DOMINGO  PTCLDY    77  70  78 NE8       30.03R
ST. KITTS      PTCLDY    77  66  69 NE17      30.03R
ST. MAARTEN    PTCLDY    75  66  73 NE16      30.06

$$



USA.gov is the U.S. government's official web portal to all federal, state and local government web resources and services.